"Pseudo-MPEC" for C94R802

Created 2023 Jun 19 2:22:03 UT using Find_Orb

Click here for an explanation of pseudo-MPECs

 
 Astrometry: 
     C94R802  C2022 12 01R35pJ7i5V+iE,:KIeo7!s1^A[agQf:ArM1iwHXfYcUXIJ*r5S0jLF51
     C94R802  C2022 12 01uNn0j5;VO]NVHqSpOt)lObyFhhSRXZ(-(8w=T-lk5H9-Uc6OG)Y/F51
     C94R802  C2022 12 01yX/gGbt%BfJ:=AHJg9:i,GyJ](q@aZsti;A+5(7A,+^NTc;G#_.JF51
     C94R802  C2022 12 01^XafO\N/UHRpC]+w?vL(#T6@I]C.EGl#b3,xa;TcG$`_0]$`*hY^F51
     C94R802  C2023 01 20XS.P;wc?9vK87AlBJ`'4w`uSj=fOv?7loS-Fp`lRx]MD]onww)O]F52
     C94R802  C2023 01 20X('uo0q4G=^UK*KQjr]BUdfmZ5D1rsHPO%K`Q9-nws(h%r:;o'[aF52
     C94R802  C2023 01 20JaLBZtL6#R;=)UKQRAKZ/*-IFHsM]5h.Pn*eh1!lc=/FL4Q$V9?`F52
     C94R802  C2023 01 28.31477 10 31 24.51 -21 15 08.4    ~4M3b 21.0 GVNEOCPG96
     C94R802  C2023 01 28.32004 10 31 24.43 -21 15 06.9    ~4M3b 21.3 GVNEOCPG96
     C94R802  C2023 01 28.32529 10 31 24.27 -21 15 06.0    ~4M3b 21.3 GVNEOCPG96
     C94R802  C2023 01 28.33054 10 31 24.09 -21 15 05.1    ~4M3b 20.6 GVNEOCPG96
     C94R802  C2023 03 27FC-Hp4++Wm\KRGnc:s#LEl#$Z=Atc[14Jpt'0,p13g:9;r?`dvf0F51
     C94R802  C2023 03 27[a+xZfcn6ZBqRR$=X5+M(FE!`cwYO.:jmmJ3Vs$j;uBHSxef3J9oF51
     C94R802  C2023 03 27J8pe!HDPV8@#+E6bn,YjO[wM!c;%VdPn5;o]9ymQtp]?`y]U+py4F51
     C94R802  C2023 03 27,v-:12pue014mJ4`V.0mMqldQ4%f@U\'om:@B0_SBsFa;o%ovPa`F51
     C94R802*1C2023 04 19.18324709 56 38.922-12 53 18.31   ~4J57 20.29GVNEOCPG96
     C94R802 1C2023 04 19.18840509 56 38.861-12 53 15.97   ~4J57 20.09GVNEOCPG96
     C94R802 1C2023 04 19.19355309 56 38.803-12 53 13.49   ~4J57 20.27GVNEOCPG96
     C94R802 1C2023 04 19.19872409 56 38.738-12 53 11.33   ~4J57 20.32GVNEOCPG96
     C94R802 mC2023 04 19.25254309 56 37.970-12 52 46.20   ~4J77 20.40GVNEOCPI52
     C94R802 mC2023 04 19.26233509 56 37.860-12 52 42.50   ~4J77 20.81GVNEOCPI52
     C94R802 mC2023 04 19.27098209 56 37.690-12 52 38.10   ~4J77       VNEOCPI52
     C94R802 2C2023 04 19Vmu[3o7ow`bkZ*!?7CmljTal$f=WasJ6/]+R\`nMuSO:Dra6Q/@rJ04
     C94R802 2C2023 04 19%@i\[-KKj1%wm@EA;xJUCvq39g?-7''c=BpBH;SMl!m7v.jF3B5[J04
     C94R802 2C2023 04 19?]cVD6(;3R^[G7bm8V+4u46bW%bl[\*DlHC)*^7BQ^49,IkoBf)XJ04
     C94R802 |C2023 04 19(`^DS?7s_aVDyL[v#s0p%6tp+65tOX=\RCspp31LW0xl,!epLk-F807
     C94R802 |C2023 04 19;lbR[\Jeog!!euq[b\.sl,eSb*IhO04kWPw82GW[iY\T.-5piCC6807
     C94R802 |C2023 04 19*.illlAstrometryZBWH34x0d1^=\TKDju3g#ql=r9Q:py'*Qk0#807
     C94R802 KC2023 04 20H#eRXjPei]A;chX6'0*Qc25;#y1HM^3YpX0rC(;'IVD75ZryeIbwH21
     C94R802 KC2023 04 208#T845`;sMOi+9;OAV0j3T\5T!TXcQpA_.UtHKmv6[9Q04.t$uO:H21
     C94R802 KC2023 04 20wIRr[o#+6bnF7K*lKANL8,43d/%`ZNl,cbcnR%bx%#!KNvyFH8R]H21
     C94R802 1C2023 04 21K=FAv-!$yag;$[n)DFF#J!NRwNSy@_\EV)fRjAVC(C_,YSi#SiZWQ62
     C94R802 1C2023 04 21jb0gj=g0#UY`A1PbhtDe3*D@t!sc[QTx;uhXyZ@.9*%1FG_k2ruWQ62
     C94R802 1C2023 04 218I2e3npAl14i3g$Svq3ZvDw)q0!GAmpSY]!Oredacted;XG;O\^b246
     C94R802 1C2023 04 21Ib;y4(YdM`bV1L2Xm%)8@BSI](_uDc89bLAvjn6R%G$7Zqp=Lc7N246
     C94R802 DC2023 05 04+jQBL7=pTUcp[+lLS\$X^]I.@5Z).hK:0w+'H_]1UpDJ^I(B,R::695
     C94R802 DC2023 05 04L)O/0]w[Qa2\h4A%Qxp-BtkkWhQ/\F5@uDP2ued6QF$@B^@s\j$e695
     C94R802 DC2023 05 04KJBmU+PUtJPrcm?')JMajoEdB[U:tNpAsUKOOuYGOBnH#wMQ8=8\695
     C94R802 1C2023 05 24.14480209 54 13.727-08 52 05.12   ~5O4b       VNEOCPG96
     C94R802 1C2023 05 24.15044309 54 13.745-08 52 03.07   ~5O4b 20.07GVNEOCPG96
     C94R802 1C2023 05 24.15607909 54 13.799-08 52 00.48   ~5O4b 20.12GVNEOCPG96
     C94R802 1C2023 05 24.16171609 54 13.820-08 51 58.25   ~5O4b 20.10GVNEOCPG96
     C94R802 KC2023 05 24wM7yge'+5IYjN.?$g@-d4Vge]r#Mo\JCMIdlQp'TOq\7j`$0HBDXM49
     C94R802 KC2023 05 24d/;\go/6R33Y]xLhHSBw%Xho?FAi$ySh:i//SE;f3u#1!kY.g0gFM49
     C94R802 KC2023 05 24x]eD=,3u_@cydL.=L$]_yapTRO@9*f7g+[^kIYPCw)-Ik$uoZH#*M49
     C94R802 KC2023 05 24/3?)LIocjTyNya)E^2-b$e]s'rB*xn6=wb@G0!Y8U[^8qgOS8HZ0M49
     C94R802 KC2023 05 24D?fC3V`ds[1ykgX^B98ZsPQa+nC)N-MGMp4*1y#F0Vkw4Os'gTTrM49
     C94R802 KC2023 06 08_o#@cIl-P94!NfMA27w#ieSbFtpUlVJovhoyZVOMkP!c(_Nt\Rc_X03
     C94R802 KC2023 06 09%Yv1LR\ANJk'^!V1l-g0#ooRC+^,-C2d.u(:1$B5oIsJ%_qfL'juX03
     C94R802 KC2023 06 09vv?'Z%iW7S3y(mn@5)i8W9rclick0^h7N=gJ\o^^;-kOaMETA?D%X03
     C94R802 3C2023 06 12.\\!TRfmtWA7EFN:^jRTww)^J(mlG7K/Mad(9*u3bp$-p,!UP-/NT14
     C94R802 3C2023 06 12*lfTN3OJK^R2Z%-/loYqV*#1_TH\HnvjWK:\cFoeZNLiAu#8Q-oFT14
     C94R802 3C2023 06 12#ZH9\pp9l`p=TRZ!!E[PL%KG(cyi2o5jP7)here2-yKS_up:(*;)T14
     C94R802 HC2023 06 12OP3!U^#7!hqoX!`ahmamFip:q/T*`B_;Zb-\3Jj](ECC3k^'k_JSM21
     C94R802 KC2023 06 14upc)T#Kn,0%B)mlsPNMK,r0go74Hf^eo9huaa[qf#YIMcQlkR=2?M49
     C94R802 KC2023 06 145'VI*v.Ik!8@bS!Ys$Z-'-JXS;[+3m$HO4L30Z\V[NvC'RVUVjb8M49
     C94R802 KC2023 06 14R2p_(QforE;yI=N^i;H#w$8U[a-l=\$Uh7LNsWshVB+^ZOy),Q-EM49
     C94R802 #C2023 06 15WbZoL[3c9BQ*n%#LRk\uQu/Zt8f%F1explanation6bl/2rDy5]AL81
     C94R802 #C2023 06 15ghjFEpy7RNBM]vh[vTr8'JrK#.bEOPiuP_Ng7c?:eu6-0fa($;c)L81
     C94R802 #C2023 06 15hh`PQ+%[NT13]R%9;xSZsCh)c)fhEOKgr1=#qv^EPJYgV8'r6ZR/L81

Station data:
(246) Klet Observatory-KLENOT  (N48.863991 E14.284760)  Czech Republic.
   Observer J. Ticha. Measurer M. Tichy. 1.06-m f/2.7 reflector + 2048x2048
   CCD.
(695) Kitt Peak  (N31.958395 W111.594670)  US/Arizona. Measurer S. Deen.
   3.5-m f/1.75 reflector + CCD0.9-m f/7.5 reflector + CCD4.0-m
   Ritchey-Chrétien + CCD0.61-m f/3.5 Schmidt + CCD2.3-m f/9 reflector + CCD.
(807) Cerro Tololo Observatory, La Serena  (S30.169133 W70.805900)  Chile.
   Observer R. Holmes. 0.61-m f/6.5 astrograph + CCD.
(F51) Pan-STARRS 1, Haleakala  (N20.707234 W156.255910)  US/Hawaii.
   Observers J. Bulger, T. Lowe, A. Schultz, M. Willman. Measurers K.
   Chambers, S. Chastel, T. de Boer, L. Denneau, J. Fairlamb, H. Flewelling,
   M. Huber, C.-C. Lin, E. Magnier, Y. Ramanjooloo, R. Wainscoat, R. Weryk.
   1.8-m Ritchey-Chrétien + CCD.
(F52) Pan-STARRS 2, Haleakala  (N20.707382 W156.255910)  US/Hawaii.
   Observers J. Bulger, T. Dukes, T. Lowe, A. Schultz, M. Willman. Measurers
   K. Chambers, S. Chastel, T. de Boer, L. Denneau, J. Fairlamb, H.
   Flewelling, M. Huber, C.-C. Lin, E. Magnier, Y. Ramanjooloo, R. Wainscoat,
   R. Weryk. 1.8-m Ritchey-Chrétien + CCD.
(G96) Mt. Lemmon Survey  (N32.442751 W110.788720)  US/Arizona.  Observer E.
   J. Christensen. 1.5-m reflector + 10K CCD.
(H21) Astronomical Research Observatory, Westfield  (N39.483054 W87.968270)
   US/Illinois.  Observer R. Holmes. Measurers S. Foglia, L. Buzzi, T.
   Linder, R. Holmes. 0.76-m f/3.0 astrograph + CCD0.81-m f/4.0 astrograph +
   CCD0.61-m f/4.5 astrograph + CCD0.40-m f/5.32 astrograph + CCD.
(I52) Steward Observatory, Mt. Lemmon Station  (N32.442544 W110.788920)
   US/Arizona.  Observers T. A. Pruyne, B. M. Africano, E. J. Christensen, G.
   A. Farneth, D. C. Fuls, A. R. Gibbs, A. D. Grauer, H. Gröller, J. A.
   Johnson, R. A. Kowalski, S. M. Larson, G. J. Leonard, D. Rankin, R. L.
   Seaman, F. C. Shelly, K. W. Wierzchoś. 1.0-m prime focus + CCD.
(J04) ESA Optical Ground Station, Tenerife  (N28.300921 W16.511830)  Canary
   Islands (Spain).  Observer M. Micheli. Measurers M. Micheli, D. Koschny,
   E. Schwab, M. Busch, A. Knöfel. 1.0-m f/4.4 reflector + CCD.
(L81) Skygems Namibia Remote Observatory  (S23.236420 E16.361690)  Namibia.
   Observer D. De Martin. Measurers L. Buzzi, G. Galli, A. Aletti. 0.51-m
   f/6.7 astrograph + CCD.
(M21) Schiaparelli Southern Observatory, Hakos  (S23.236549 E16.361440)
   Namibia.  Observers A. Aletti, F. Bellini, L. Buzzi, G. Galli. Measurer L.
   Buzzi. 0.36-m f/8.4 reflector + CCD.
(M49) IAS Remote Observatory, Hakos  (S23.236549 E16.361720)  Namibia.
(Q62) iTelescope Observatory, Siding Spring  (S31.273286 E149.064420)
   Australia/NSW.  Observer H. Sato. 0.51-m f/6.8 astrograph + CCD + f/4.5
   focal reducer0.43-m f/6.8 astrograph + CCD + focal reducer0.43-m f/6.8
   astrograph + CCD0.10-m f/5 astrograph + CCD0.127-m f/5.6 refractor +
   CCD0.50-m f/6.8 reflector + CCD0.30-m f/9 reflector + CCD.
(T14) Mauna Kea-UH/Tholen NEO Follow-Up (CFHT)  (N19.825252 W155.468876)
   US/Hawaii.  Observer R. Weryk. 3.6-m Canada-France-Hawaii Telescope.
(X03) Observatoire SADR, Poroto  (S30.533914 W70.796390)  Chile.  Observers
   J. L. Virlichie, P. Traverse. 0.35-m f/4.7 Newtonian reflector + CCD.

Orbital elements:  C94R802
   Perihelion 2025 Jun 30.13375 +/- 0.0166 TT =  3:12:35 (JD 2460856.63375)
Epoch 2023 Jun 15.0 TT = JDT 2460110.5   Ju: 0.2493              AutoNEOCP
q   4.31258466 +/- 0.000103         (J2000 ecliptic)
H   11.42 G 0.15                    Peri.   60.08298 +/- 0.0012
                                    Node   159.48003 +/- 0.00020
e   1.0004791 +/- 4.18e-5           Incl.   97.88493 +/- 0.00046
58 of 60 observations 2022 Dec. 1-2023 June 15; mean residual 0".24
Residuals in arcseconds: 
221201 F51  .06-  .07+    230419 I52  .41+  .56-    230524 G96  .22+  .18-    
221201 F51  .23+  .09+    230419 I52  .32-  .12-    230524 G96  .14+  .04+    
221201 F51  .22+  .12+    230419 J04  .05+  .07+    230524 M49  .16-  .10-    
221201 F51  .02-  .17-    230419 J04  .02-  .12-    230524 M49  .14+  .03-    
230120 F52  .02-  .01+    230419 J04  .01+  .11-    230524 M49  .18+  .07+    
230120 F52  .15-  .16+    230419 807  .21+  .44-    230524 M49  .11+  .06-    
230120 F52  .05-  .28-    230419 807  .71-  .10+    230524 M49  .16+  .06+    
230128 G96  .51-  .31-    230419 807  .17-  .06+    230608 X03  .17+  .19-    
230128 G96  .24+  .27+    230420 H21  .11-  .03+    230609 X03  .47+  .33-    
230128 G96  .14-  .26+    230420 H21  .17-  .12-    230609 X03  .06-  .09-    
230128 G96  .79-  .24+    230420 H21  .24-  .17-    230612 T14  .01-  .04+    
230327 F51  .07+  .01+    230421 Q62  .00   .00     230612 T14  .00   .04+    
230327 F51  .07-  .10+    230421 Q62  .50+  .22-    230612 T14  .01-  .06+    
230327 F51  .02-  .00     230421 246( 2.0+  .36-)   230612 M21  .49-  .19-    
230327 F51  .02-  .09+    230421 246( 1.8+  1.4-)   230614 M49  .46+  .10-    
